TimeEDT,TemperatureF,Dew PointF,Humidity,Sea Level PressureIn,VisibilityMPH,Wind Direction,Wind SpeedMPH,Gust SpeedMPH,PrecipitationIn,Events,Conditions,WindDirDegrees,DateUTC
12:56 AM,64.0,57.0,78,30.07,10.0,NW,5.8,-,N/A,,Clear,310,2014-08-09 04:56:00
1:56 AM,63.0,57.0,81,30.06,10.0,NW,5.8,-,N/A,,Clear,310,2014-08-09 05:56:00
2:56 AM,62.1,55.9,80,30.06,10.0,NW,5.8,-,N/A,,Clear,320,2014-08-09 06:56:00
3:56 AM,60.1,55.0,83,30.07,10.0,NNW,5.8,-,N/A,,Clear,330,2014-08-09 07:56:00
4:56 AM,61.0,55.9,83,30.07,10.0,NNW,6.9,-,N/A,,Clear,330,2014-08-09 08:56:00
5:56 AM,60.1,55.9,86,30.09,10.0,NW,8.1,-,N/A,,Clear,320,2014-08-09 09:56:00
6:56 AM,62.1,57.9,86,30.10,10.0,NW,8.1,-,N/A,,Clear,320,2014-08-09 10:56:00
7:56 AM,66.9,57.9,73,30.11,10.0,North,11.5,-,N/A,,Clear,350,2014-08-09 11:56:00
8:56 AM,71.1,57.9,63,30.12,10.0,NNW,11.5,-,N/A,,Clear,340,2014-08-09 12:56:00
9:56 AM,75.9,59.0,56,30.10,10.0,NNE,8.1,-,N/A,,Clear,20,2014-08-09 13:56:00
10:56 AM,78.1,57.9,50,30.11,10.0,WNW,4.6,-,N/A,,Clear,290,2014-08-09 14:56:00
11:56 AM,79.0,54.0,42,30.10,10.0,Variable,4.6,-,N/A,,Partly Cloudy,0,2014-08-09 15:56:00
12:56 PM,81.0,52.0,36,30.09,10.0,NW,9.2,-,N/A,,Partly Cloudy,310,2014-08-09 16:56:00
1:56 PM,82.0,50.0,33,30.08,10.0,NNW,11.5,-,N/A,,Partly Cloudy,330,2014-08-09 17:56:00
2:56 PM,82.9,53.1,36,30.07,10.0,WNW,10.4,-,N/A,,Scattered Clouds,290,2014-08-09 18:56:00
3:56 PM,82.0,51.1,34,30.07,10.0,West,5.8,-,N/A,,Scattered Clouds,280,2014-08-09 19:56:00
4:56 PM,82.0,52.0,35,30.06,10.0,NW,6.9,-,N/A,,Partly Cloudy,310,2014-08-09 20:56:00
5:56 PM,81.0,52.0,36,30.06,10.0,WNW,6.9,-,N/A,,Partly Cloudy,290,2014-08-09 21:56:00
6:56 PM,79.0,54.0,42,30.07,10.0,NW,5.8,-,N/A,,Partly Cloudy,320,2014-08-09 22:56:00
7:56 PM,73.0,57.9,59,30.07,10.0,Calm,Calm,-,N/A,,Partly Cloudy,0,2014-08-09 23:56:00
8:56 PM,71.1,59.0,66,30.08,10.0,Calm,Calm,-,N/A,,Clear,0,2014-08-10 00:56:00
9:56 PM,69.1,60.1,73,30.09,10.0,Calm,Calm,-,N/A,,Clear,0,2014-08-10 01:56:00
10:56 PM,66.9,59.0,76,30.10,10.0,WNW,4.6,-,N/A,,Clear,290,2014-08-10 02:56:00
11:56 PM,64.4,60.8,88,30.12,10.0,NW,4.6,-,N/A,,Clear,310,2014-08-10 03:56:00